Location: Cambroso
(45.2833°N, 12.0850°E)
Time: 12:12:25
(UTC+00:00)

SJ 16-02 - Pass Details

Date: 21 January 2021
Orbit: 606 x 616 km, 75.0° (Epoch: 07 March)

Event Time Altitude Azimuth Distance (km) Brightness Sun altitude
Rises 17:24:23 0° 189° (S) 2,864 5.1 -14.1°
Reaches altitude 10° 17:26:37 10° 186° (S) 1,962 4.2 -14.5°
Maximum altitude 17:30:56 62° 107° (ESE) 691 1.3 -15.2°
Enters shadow 17:34:26 15° 28° (NNE) 1,642 3.2 -15.8°
